Albany, NY

11:22 PM EDT on September 18, 2019 (GMT -0400)
Albany International

Weather History for KALB - July, 2019

Change the Weather History Date:

Tuesday, July 23, 2019

  Actual Average Record
Temperature  
Mean Temperature 72 °F 72 °F  
Max Temperature 79 °F 83 °F 96 °F (1952)
Min Temperature 65 °F 62 °F 45 °F (1981)
Degree Days  
Heating Degree Days 0 0  
Month to date heating degree days 0 0  
Since 1 June heating degree days 27 52  
Since 1 July heating degree days 0 0  
Cooling Degree Days 7 7  
Month to date cooling degree days 267 158  
Year to date cooling degree days 417 306  
Since 1 June cooling degree days 395 276  
Growing Degree Days 22 (Base 50)    
Moisture  
Dew Point 60 °F    
Average Humidity 70    
Maximum Humidity 93    
Minimum Humidity 47    
Precipitation  
Precipitation 0.48 in 0.13 in 2.49 in (2008)
Month to date precipitation 3.56 3.06  
Year to date precipitation 24.43 21.63  
Sea Level Pressure  
Sea Level Pressure 29.86 in    
Wind  
Wind Speed 5 mph (North)    
Max Wind Speed 15 mph    
Max Gust Speed 18 mph    
Visibility 9 miles    
Events Rain    
T = Trace of Precipitation, MM = Missing Value Source: NWS Daily Summary

Daily Weather History Graph

Daily Weather History Graph

Search for Another Location

Airport or City:

Astronomy

Jul. 23, 2019 Rise Set
Actual Time 5:37 AM EDT 8:25 PM EDT
Civil Twilight 5:04 AM EDT 8:58 PM EDT
Nautical Twilight 4:22 AM EDT 9:39 PM EDT
Astronomical Twilight 3:34 AM EDT 10:27 PM EDT
Moon No Moon Rise 11:56 AM EDT (7/23)
Length of Visible Light 15h 53m
Length of Day
14h 47m
Waning Gibbous, 63% of the Moon is Illuminated
Jul 23
Waning Gibbous
Jul 24
Last Quarter
Jul 31
New
Aug 7
First Quarter
Aug 15
Full

Hourly Weather History & Observations

Time (EDT) Temp. Dew Point Humidity Pressure Visibility Wind Dir Wind Speed Gust Speed Precip Events Conditions
12:51 AM 66.0 °F 62.1 °F 87% 29.83 in 10.0 mi North 5.8 mph - 0.00 in Rain Light Rain
1:09 AM 66.0 °F 62.1 °F 87% 29.83 in 8.0 mi North 4.6 mph - 0.00 in Rain Light Rain
1:51 AM 64.9 °F 62.1 °F 90% 29.82 in 7.0 mi North 5.8 mph - 0.05 in Rain Light Rain
2:51 AM 64.9 °F 62.1 °F 90% 29.81 in 4.0 mi NNE 5.8 mph - 0.09 in Rain Rain
3:03 AM 64.9 °F 62.1 °F 90% 29.81 in 5.0 mi North 5.8 mph - 0.03 in Rain Light Rain
3:47 AM 64.4 °F 62.6 °F 94% 29.81 in 6.0 mi North 8.1 mph - 0.12 in Rain Light Rain
3:51 AM 64.9 °F 62.1 °F 90% 29.81 in 7.0 mi North 5.8 mph - 0.12 in Rain Light Rain
4:51 AM 64.9 °F 62.1 °F 90% 29.82 in 8.0 mi North 5.8 mph - 0.03 in Rain Light Rain
5:28 AM 64.9 °F 61.0 °F 87% 29.83 in 7.0 mi North 6.9 mph - 0.05 in Rain Light Rain
5:51 AM 64.9 °F 61.0 °F 87% 29.84 in 6.0 mi North 6.9 mph - 0.07 in Rain Light Rain
6:03 AM 64.9 °F 62.1 °F 90% 29.84 in 5.0 mi NNE 4.6 mph - 0.03 in Rain Light Rain
6:51 AM 64.9 °F 62.1 °F 90% 29.84 in 6.0 mi North 6.9 mph - 0.09 in Rain Light Rain
7:51 AM 64.9 °F 61.0 °F 87% 29.85 in 6.0 mi North 8.1 mph - 0.03 in Rain Light Rain
8:51 AM 66.0 °F 62.1 °F 87% 29.85 in 10.0 mi North 8.1 mph - 0.00 in   Overcast
9:07 AM 66.0 °F 62.1 °F 87% 29.85 in 10.0 mi North 6.9 mph - N/A   Overcast
9:40 AM 66.9 °F 63.0 °F 87% 29.86 in 10.0 mi North 8.1 mph - N/A   Overcast
9:51 AM 68.0 °F 63.0 °F 84% 29.86 in 10.0 mi NNW 5.8 mph - N/A   Overcast
10:51 AM 70.0 °F 62.1 °F 76% 29.87 in 10.0 mi North 5.8 mph - N/A   Overcast
11:51 AM 72.0 °F 60.1 °F 66% 29.87 in 10.0 mi Variable 4.6 mph - N/A   Mostly Cloudy
12:51 PM 73.9 °F 59.0 °F 59% 29.86 in 10.0 mi NW 5.8 mph - N/A   Mostly Cloudy
1:51 PM 75.9 °F 57.0 °F 52% 29.86 in 10.0 mi NE 6.9 mph - N/A   Mostly Cloudy
2:51 PM 78.1 °F 57.0 °F 48% 29.87 in 10.0 mi North 5.8 mph - N/A   Mostly Cloudy
3:51 PM 77.0 °F 57.0 °F 50% 29.87 in 10.0 mi ENE 4.6 mph - N/A   Mostly Cloudy
4:51 PM 77.0 °F 55.9 °F 48% 29.87 in 10.0 mi Variable 4.6 mph - N/A   Mostly Cloudy
5:51 PM 75.9 °F 57.0 °F 52% 29.87 in 10.0 mi SE 4.6 mph - N/A   Mostly Cloudy
6:51 PM 75.0 °F 57.0 °F 53% 29.89 in 10.0 mi SSE 4.6 mph - N/A   Mostly Cloudy
7:51 PM 73.0 °F 60.1 °F 64% 29.90 in 10.0 mi SSE 3.5 mph - N/A   Mostly Cloudy
8:51 PM 72.0 °F 59.0 °F 64% 29.89 in 10.0 mi South 4.6 mph - N/A   Mostly Cloudy
9:51 PM 71.1 °F 61.0 °F 70% 29.92 in 10.0 mi Calm Calm - N/A   Mostly Cloudy
10:51 PM 70.0 °F 60.1 °F 71% 29.91 in 10.0 mi Calm Calm - N/A   Overcast
11:51 PM 68.0 °F 61.0 °F 78% 29.90 in 10.0 mi SE 3.5 mph - N/A   Overcast